Regional Weather Roundup
Issued by NWS

Home | Current Version | Previous Version | Text Only | Print | Product List | Glossary Off
Versions: 1 2 3 4 5 6 7 8 9 10 11 12 13 14 15 16 17 18 19 20 21 22 23 24 25 26 27 28 29 30 31 32 33 34 35 36 37 38 39 40 41 42 43 44 45 46 47 48 49 50

000
ASUS45 KABQ 251501
RWRNM
NEW MEXICO REGIONAL WEATHER ROUNDUP
NATIONAL WEATHER SERVICE ALBUQUERQUE NM
900 AM MDT MON JUL 25 2016

NOTE: "FAIR" MEANS FEW OR NO CLOUDS BELOW 12,000 FEET AGL WITH NO
       SIGNIFICANT WEATHER OR OBSTRUCTIONS TO VISION.

      THIS PRODUCT IS RELEASED AS TWO VERSIONS.  ONE VERSION NEAR
      THE TOP OF THE HOUR CONTAINING PRELIMINARY DATA FROM ALBUQUERQUE
      AND OTHER STATIONS.  A FINAL VERSION WITH ADDITIONAL DATA IS
      ISSUED ABOUT 10 MINUTES AFTER THE HOUR.

NMZ501-503-504-510>518-251600-
NORTHWEST PLATEAU/NORTHCENTRAL MOUNTAINS

CITY           SKY/WX    TMP DP  RH WIND       PRES   REMARKS
FARMINGTON     FAIR      78  47  33 E12       30.25S
LOS ALAMOS     FAIR      71  47  42 SE3       30.42S
SANTA FE       FAIR      75  49  39 S3        30.34S
TAOS           FAIR      70  39  32 CALM      30.42S
ANGEL FIRE     FAIR      57  51  79 NE6       30.51F

$$
NMZ402-403-502-505>509-251600-
WESTCENTRAL MOUNTAINS/SOUTHWEST MOUNTAINS

CITY           SKY/WX    TMP DP  RH WIND       PRES   REMARKS
GALLUP         FAIR      73  49  42 S6        30.34S
GRANTS         FAIR      76  49  37 SE8       30.37R
SILVER CITY    FAIR      79  51  37 NW6       30.25R

$$
NMZ407-409-411-412-251600-
SOUTHERN DESERTS

CITY           SKY/WX    TMP DP  RH WIND       PRES   REMARKS
LORDSBURG      FAIR      79  54  41 NW10G18   30.18R
DEMING         FAIR      80  57  45 CALM      30.16S
LAS CRUCES     FAIR      84  52  32 CALM      30.18R
ALAMOGORDO     FAIR      86  54  32 SW5       30.16R
T OR C         FAIR      83  51  33 N10       30.20R

$$
NMZ519>523-251600-
CENTRAL VALLEYS/CENTRAL HIGHLANDS

CITY           SKY/WX    TMP DP  RH WIND       PRES   REMARKS
ALBUQUERQUE    FAIR      81  52  36 E13       30.27S
DOUBLE EAGLE   MOSUNNY   77  54  44 NE7       30.32R
MORIARTY ARPT  FAIR      74  52  47 CALM      30.35S
CLINES CORNERS FAIR      70  53  54 E10       30.40F
BELEN          FAIR      75  55  48 NW5       30.27S
SOCORRO        FAIR      80  51  36 N12G20    30.24R

$$
NMZ524>526-539-540-251600-
SOUTHCENTRAL MOUNTAINS

CITY           SKY/WX    TMP DP  RH WIND       PRES   REMARKS
RUIDOSO          N/A     73  50  43 SE6       30.39R

$$
NMZ527>531-251600-
NORTHEAST HIGHLANDS/NORTHEAST PLAINS

CITY           SKY/WX    TMP DP  RH WIND       PRES   REMARKS
LAS VEGAS      FAIR      68  54  60 E3        30.39S
RATON          FAIR      68  54  60 SE3       30.33F
CLAYTON        FAIR      75  64  68 CALM      30.25F

$$
NMZ532>537-251600-
EASTCENTRAL PLAINS

CITY           SKY/WX    TMP DP  RH WIND       PRES   REMARKS
TUCUMCARI      FAIR      80  60  50 NE8       30.19S
CANNON AFB     NOT AVBL
CLOVIS AIRPORT FAIR      79  57  47 CALM      30.20R

$$
NMZ028-029-538-251600-
SOUTHEAST PLAINS

CITY           SKY/WX    TMP DP  RH WIND       PRES   REMARKS
ROSWELL        FAIR      82  55  39 N9        30.14S
ARTESIA        FAIR      84  57  39 N9        30.14S
CARLSBAD       FAIR      84  56  38 N6        30.11R
HOBBS          SUNNY     84  59  42 S6        30.15S


$$




USA.gov is the U.S. government's official web portal to all federal, state and local government web resources and services.